Location: Cieszkowy
(50.3290°N, 20.5336°E)
Time: 00:45:56
(UTC+00:00)

Orbus 7S? - Pass Details

Date: 15 June 2024
Orbit: 365 x 6246 km, 56.9° (Epoch: 03 July)

Event Time Altitude Azimuth Distance (km) Brightness Sun altitude
Rises 01:03:27 0° 297° (WNW) 2,220 6.4 -9.7°
Reaches altitude 10° 01:05:13 10° 286° (WNW) 1,439 5.3 -9.5°
Maximum altitude 01:07:53 34° 218° (SW) 818 3.7 -9.3°
Drops below altitude 10° 01:12:01 10° 152° (SSE) 2,266 6.2 -8.9°
Sets 01:15:34 0° 145° (SE) 3,842 7.4 -8.6°
